WB4FAY-4 Weather Reports


time (UTC)temp
C
wind
direction
speed
KPH
gust
KPH
rain 1hr
cm
rain 24hr
cm
rain mn
cm
humidity
%
barometer
mb
20260831234018 32 0 0.0 0.0 0.00 0.00 0.00 53 1018.4
20260831233517 32 56 0.0 8.0 0.00 0.00 0.00 52 1018.4
20260831233017 32 86 3.2 6.4 0.00 0.00 0.00 52 1018.3
20260831232517 32 102 0.0 3.2 0.00 0.00 0.00 51 1018.3
20260831232017 32 80 0.0 9.7 0.00 0.00 0.00 50 1018.3
20260831231517 32 100 0.0 4.8 0.00 0.00 0.00 50 1018.4
20260831231018 32 95 1.6 11.3 0.00 0.00 0.00 50 1018.4
20260831230517 32 61 4.8 6.4 0.00 0.00 0.00 50 1018.5
20260831230017 32 79 0.0 9.7 0.00 0.00 0.00 49 1018.5
20260831225517 32 104 0.0 8.0 0.00 0.00 0.00 49 1018.5
20260831225017 33 66 0.0 6.4 0.00 0.00 0.00 50 1018.5
20260831224517 33 78 0.0 14.5 0.00 0.00 0.00 49 1018.5
20260831224017 33 82 8.0 9.7 0.00 0.00 0.00 49 1018.6
20260831223517 33 83 0.0 11.3 0.00 0.00 0.00 49 1018.5
20260831223017 33 360 3.2 11.3 0.00 0.00 0.00 49 1018.6
20260831222517 33 65 8.0 11.3 0.00 0.00 0.00 48 1018.5
20260831222017 33 78 6.4 9.7 0.00 0.00 0.00 47 1018.5
20260831221517 33 93 4.8 9.7 0.00 0.00 0.00 46 1018.5
20260831221017 33 96 6.4 11.3 0.00 0.00 0.00 46 1018.6
20260831220517 33 90 9.7 3.2 0.00 0.00 0.00 48 1018.5
20260831220017 33 85 1.6 12.9 0.00 0.00 0.00 48 1018.5
20260831215517 34 88 0.0 9.7 0.00 0.00 0.00 48 1018.5
20260831215017 34 99 6.4 8.0 0.00 0.00 0.00 46 1018.5
20260831214517 34 66 4.8 11.3 0.00 0.00 0.00 45 1018.6
20260831214017 35 78 8.0 9.7 0.00 0.00 0.00 44 1018.6
20260831213517 35 69 3.2 14.5 0.00 0.00 0.00 43 1018.6
20260831213017 35 97 3.2 8.0 0.00 0.00 0.00 42 1018.7
20260831212517 35 86 4.8 8.0 0.00 0.00 0.00 42 1018.8
20260831212018 35 82 3.2 12.9 0.00 0.00 0.00 44 1018.8
20260831211517 35 83 1.6 12.9 0.00 0.00 0.00 43 1018.8
20260831211017 35 58 0.0 9.7 0.00 0.00 0.00 43 1018.9
20260831210517 35 73 3.2 14.5 0.00 0.00 0.00 43 1018.9
20260831210018 35 90 0.0 12.9 0.00 0.00 0.00 43 1018.9
20260831205517 35 78 0.0 14.5 0.00 0.00 0.00 43 1018.8
20260831205017 35 79 6.4 9.7 0.00 0.00 0.00 42 1018.9
20260831204517 35 90 4.8 12.9 0.00 0.00 0.00 43 1018.9
20260831204017 35 68 9.7 6.4 0.00 0.00 0.00 43 1018.9
20260831203518 35 113 0.0 11.3 0.00 0.00 0.00 43 1018.9
20260831203017 35 100 4.8 11.3 0.00 0.00 0.00 44 1018.9
20260831202517 35 96 3.2 11.3 0.00 0.00 0.00 43 1019.0
20260831202017 35 97 3.2 8.0 0.00 0.00 0.00 43 1019.0
20260831201517 35 83 3.2 9.7 0.00 0.00 0.00 43 1019.1
20260831201017 35 95 0.0 11.3 0.00 0.00 0.00 43 1019.2
20260831200517 35 160 1.6 12.9 0.00 0.00 0.00 44 1019.2
20260831200018 35 144 0.0 6.4 0.00 0.00 0.00 44 1019.3
20260831195517 34 71 0.0 12.9 0.00 0.00 0.00 42 1019.3
20260831195017 34 137 8.0 8.0 0.00 0.00 0.00 43 1019.5
20260831194517 34 107 1.6 12.9 0.00 0.00 0.00 43 1019.5
20260831194017 33 88 4.8 11.3 0.00 0.00 0.00 45 1019.4
20260831193518 33 35 11.3 8.0 0.00 0.00 0.00 46 1019.5
20260831193017 33 61 0.0 12.9 0.00 0.00 0.00 45 1019.6
20260831192517 33 86 6.4 14.5 0.00 0.00 0.00 46 1019.6
20260831192017 33 34 4.8 8.0 0.00 0.00 0.00 46 1019.6
20260831191517 33 93 0.0 12.9 0.00 0.00 0.00 46 1019.7
20260831191017 33 90 0.0 11.3 0.00 0.00 0.00 46 1019.8
20260831190517 33 121 4.8 6.4 0.00 0.00 0.00 47 1019.8
20260831190017 33 32 4.8 8.0 0.00 0.00 0.00 48 1019.9
20260831185518 33 18 0.0 6.4 0.00 0.00 0.00 47 1019.9
20260831185017 33 356 3.2 9.7 0.00 0.00 0.00 48 1020.0
20260831184517 33 76 9.7 9.7 0.00 0.00 0.00 49 1020.1
20260831184017 32 23 3.2 8.0 0.00 0.00 0.00 49 1020.2
20260831183517 32 72 0.0 11.3 0.00 0.00 0.00 47 1020.2
20260831183017 32 189 0.0 6.4 0.00 0.00 0.00 49 1020.3
20260831182517 32 92 0.0 6.4 0.00 0.00 0.00 51 1020.4
20260831182017 32 0 0.0 0.0 0.00 0.00 0.00 51 1020.5
20260831181517 32 45 0.0 4.8 0.00 0.00 0.00 53 1020.5
20260831181017 32 0 0.0 0.0 0.00 0.00 0.00 55 1020.7
20260831180518 32 0 0.0 0.0 0.00 0.00 0.00 54 1020.7
20260831180018 32 34 0.0 6.4 0.00 0.00 0.00 53 1020.7
20260831175517 32 120 1.6 4.8 0.00 0.00 0.00 57 1020.8
20260831175017 32 80 1.6 8.0 0.00 0.00 0.00 55 1020.8
20260831174517 32 42 0.0 11.3 0.00 0.00 0.00 55 1020.9
20260831174017 32 239 0.0 6.4 0.00 0.00 0.00 56 1021.0
20260831173517 31 256 1.6 8.0 0.00 0.00 0.00 57 1021.0
20260831173017 31 136 1.6 6.4 0.00 0.00 0.00 58 1021.0
20260831172517 31 112 4.8 8.0 0.00 0.00 0.00 59 1021.1
20260831172017 31 182 0.0 8.0 0.00 0.00 0.00 58 1021.1
20260831171517 31 127 0.0 6.4 0.00 0.00 0.00 57 1021.2
20260831171018 31 75 0.0 12.9 0.00 0.00 0.00 58 1021.2
20260831170517 31 78 9.7 9.7 0.00 0.00 0.00 60 1021.2
20260831170017 31 271 0.0 8.0 0.00 0.00 0.00 61 1021.2
20260831165517 30 278 1.6 4.8 0.00 0.00 0.00 64 1021.3
20260831165017 30 253 4.8 4.8 0.00 0.00 0.00 66 1021.4
20260831164517 30 93 0.0 3.2 0.00 0.00 0.00 65 1021.5
20260831164017 30 93 0.0 3.2 0.00 0.00 0.00 64 1021.6
20260831163517 30 0 0.0 0.0 0.00 0.00 0.00 65 1021.6
20260831163017 30 320 0.0 6.4 0.00 0.00 0.00 65 1021.7
20260831162517 31 0 0.0 0.0 0.00 0.00 0.00 62 1021.8
20260831162017 31 144 0.0 3.2 0.00 0.00 0.00 60 1021.8
20260831161517 31 48 0.0 6.4 0.00 0.00 0.00 62 1021.8
20260831161018 31 88 0.0 9.7 0.00 0.00 0.00 61 1021.8
20260831160517 31 116 0.0 9.7 0.00 0.00 0.00 62 1021.9
20260831160017 31 78 0.0 3.2 0.00 0.00 0.00 61 1021.9
20260831155517 31 97 0.0 8.0 0.00 0.00 0.00 62 1021.8
20260831155017 31 79 1.6 6.4 0.00 0.00 0.00 62 1022.0
20260831154517 30 89 0.0 11.3 0.00 0.00 0.00 63 1022.0
20260831154017 30 49 4.8 6.4 0.00 0.00 0.00 64 1021.9
20260831153517 30 75 3.2 11.3 0.00 0.00 0.00 65 1021.9
20260831153018 30 155 6.4 9.7 0.00 0.00 0.00 65 1021.9
20260831152517 30 258 6.4 6.4 0.00 0.00 0.00 66 1021.9
20260831152017 30 90 0.0 3.2 0.00 0.00 0.00 68 1021.9
20260831151517 29 0 0.0 0.0 0.00 0.00 0.00 69 1021.9
20260831151017 29 0 0.0 0.0 0.00 0.00 0.00 70 1021.9
20260831150517 29 99 0.0 8.0 0.00 0.00 0.00 70 1022.0
20260831150017 28 82 3.2 8.0 0.00 0.00 0.00 70 1021.9
20260831145517 28 161 1.6 4.8 0.00 0.00 0.00 71 1022.0
20260831145017 28 0 0.0 0.0 0.00 0.00 0.00 73 1022.0
20260831144517 28 0 0.0 0.0 0.00 0.00 0.00 75 1021.9
20260831144017 27 0 0.0 0.0 0.00 0.00 0.00 75 1021.9
20260831143517 28 271 0.0 3.2 0.00 0.00 0.00 75 1021.9
20260831143017 27 302 3.2 3.2 0.00 0.00 0.00 75 1021.9
20260831142517 27 311 3.2 4.8 0.00 0.00 0.00 77 1021.9
20260831142018 27 268 0.0 6.4 0.00 0.00 0.00 77 1021.9
20260831141517 27 263 4.8 3.2 0.00 0.00 0.00 78 1021.9
20260831141017 27 309 0.0 8.0 0.00 0.00 0.00 78 1021.9
20260831140517 27 250 3.2 4.8 0.00 0.00 0.00 78 1021.9
20260831140017 26 246 0.0 3.2 0.00 0.00 0.00 79 1022.0
20260831135517 26 193 1.6 4.8 0.00 0.00 0.00 80 1022.0
20260831135018 26 90 3.2 8.0 0.00 0.00 0.00 81 1022.0
20260831134517 26 126 3.2 8.0 0.00 0.00 0.00 82 1022.0
20260831134017 26 123 3.2 4.8 0.00 0.00 0.00 83 1022.0
20260831133517 26 147 4.8 6.4 0.00 0.00 0.00 83 1022.1
20260831133017 26 133 3.2 4.8 0.00 0.00 0.00 84 1022.1
20260831132517 25 104 3.2 4.8 0.00 0.00 0.00 85 1022.2
20260831132017 25 64 0.0 4.8 0.00 0.00 0.00 86 1022.1
20260831131517 25 51 1.6 3.2 0.00 0.00 0.00 87 1022.1
20260831131017 25 10 3.2 4.8 0.00 0.00 0.00 87 1022.0
20260831130517 25 45 0.0 3.2 0.00 0.00 0.00 88 1022.0
20260831130017 25 85 1.6 8.0 0.00 0.00 0.00 89 1022.0
20260831125522 24 90 6.4 4.8 0.00 0.00 0.00 89 1021.9
20260831125017 24 90 1.6 3.2 0.00 0.00 0.00 90 1021.9
20260831124517 24 83 1.6 4.8 0.00 0.00 0.00 91 1021.8
20260831124018 24 49 0.0 3.2 0.00 0.00 0.00 91 1021.7
20260831123517 24 23 3.2 4.8 0.00 0.00 0.00 91 1021.8
20260831123017 23 76 0.0 3.2 0.00 0.00 0.00 92 1021.7
20260831122517 23 62 1.6 4.8 0.00 0.00 0.00 92 1021.6
20260831122017 23 93 0.0 4.8 0.00 0.00 0.00 92 1021.4
20260831121517 23 0 3.2 0.0 0.00 0.00 0.00 92 1021.4
20260831121017 23 0 0.0 0.0 0.00 0.00 0.00 92 1021.3
20260831120517 23 0 0.0 0.0 0.00 0.00 0.00 92 1021.2
20260831120017 23 0 0.0 0.0 0.00 0.00 0.00 92 1021.1
20260831115517 23 0 0.0 0.0 0.00 0.00 0.00 92 1021.0
20260831115017 23 0 0.0 0.0 0.00 0.00 0.00 92 1021.0
20260831114518 23 0 0.0 0.0 0.00 0.00 0.00 92 1020.9
20260831114017 23 0 0.0 0.0 0.00 0.00 0.00 92 1020.9
20260831113517 23 0 0.0 0.0 0.00 0.00 0.00 92 1020.9
20260831113017 23 0 0.0 0.0 0.00 0.00 0.00 92 1020.8
20260831112518 23 0 0.0 0.0 0.00 0.00 0.00 92 1020.8
20260831112017 23 0 0.0 0.0 0.00 0.00 0.00 92 1020.7
20260831111517 23 0 0.0 0.0 0.00 0.00 0.00 92 1020.7
20260831111017 23 0 0.0 0.0 0.00 0.00 0.00 92 1020.5
20260831110517 23 0 0.0 0.0 0.00 0.00 0.00 92 1020.4
20260831110017 23 0 0.0 0.0 0.00 0.00 0.00 92 1020.5
20260831105517 23 0 0.0 0.0 0.00 0.00 0.00 92 1020.5
20260831105018 23 0 0.0 0.0 0.00 0.00 0.00 91 1020.4
20260831104517 23 0 0.0 0.0 0.00 0.00 0.00 91 1020.4
20260831104017 23 0 0.0 0.0 0.00 0.00 0.00 91 1020.4
20260831103517 23 0 0.0 0.0 0.00 0.00 0.00 91 1020.4
20260831103018 23 0 0.0 0.0 0.00 0.00 0.00 91 1020.3
20260831102517 23 0 0.0 0.0 0.00 0.00 0.00 91 1020.3
20260831102017 23 0 0.0 0.0 0.00 0.00 0.00 91 1020.2
20260831101517 23 0 0.0 0.0 0.00 0.00 0.00 91 1020.2
20260831101017 23 0 0.0 0.0 0.00 0.00 0.00 91 1020.2
20260831100517 23 0 0.0 0.0 0.00 0.00 0.00 91 1020.2
20260831100017 23 0 0.0 0.0 0.00 0.00 0.00 91 1020.2
20260831095517 23 0 0.0 0.0 0.00 0.00 0.00 91 1020.1
20260831095017 23 0 0.0 0.0 0.00 0.00 0.00 91 1020.1
20260831094517 23 0 0.0 0.0 0.00 0.00 0.00 91 1020.2
20260831094018 23 0 0.0 0.0 0.00 0.00 0.00 91 1020.1
20260831093517 23 0 0.0 0.0 0.00 0.00 0.00 91 1020.1
20260831093017 23 0 0.0 0.0 0.00 0.00 0.00 90 1020.0
20260831092518 23 0 0.0 0.0 0.00 0.00 0.00 90 1020.0
20260831092017 23 0 0.0 0.0 0.00 0.00 0.00 90 1019.9
20260831091517 23 0 0.0 0.0 0.00 0.00 0.00 90 1020.0
20260831091022 23 0 0.0 0.0 0.00 0.00 0.00 90 1019.9
20260831090517 23 0 0.0 0.0 0.00 0.00 0.00 90 1019.9
20260831090017 23 0 0.0 0.0 0.00 0.00 0.00 90 1019.9
20260831085517 23 0 0.0 0.0 0.00 0.00 0.00 90 1019.9
20260831085017 23 0 0.0 0.0 0.00 0.00 0.00 90 1019.8
20260831084517 23 0 0.0 0.0 0.00 0.00 0.00 90 1019.8
20260831084017 23 0 0.0 0.0 0.00 0.00 0.00 90 1019.7
20260831083517 24 0 0.0 0.0 0.00 0.00 0.00 90 1019.7
20260831083017 24 0 0.0 0.0 0.00 0.00 0.00 89 1019.6
20260831082518 24 0 0.0 0.0 0.00 0.00 0.00 89 1019.6
20260831082017 23 0 0.0 0.0 0.00 0.00 0.00 89 1019.5
20260831081517 24 0 0.0 0.0 0.00 0.00 0.00 89 1019.5
20260831081017 24 0 0.0 0.0 0.00 0.00 0.00 89 1019.5
20260831080517 24 0 0.0 0.0 0.00 0.00 0.00 89 1019.5
20260831080017 24 0 0.0 0.0 0.00 0.00 0.00 89 1019.6
20260831075518 24 0 0.0 0.0 0.00 0.00 0.00 89 1019.6
20260831075017 24 0 0.0 0.0 0.00 0.00 0.00 89 1019.5
20260831074517 24 0 0.0 0.0 0.00 0.00 0.00 88 1019.5
20260831074017 24 0 0.0 0.0 0.00 0.00 0.00 88 1019.5
20260831073517 24 0 0.0 0.0 0.00 0.00 0.00 88 1019.4
20260831073017 24 0 0.0 0.0 0.00 0.00 0.00 88 1019.5
20260831072517 24 0 0.0 0.0 0.00 0.00 0.00 88 1019.5
20260831072017 24 0 0.0 0.0 0.00 0.00 0.00 88 1019.5
20260831071518 24 0 0.0 0.0 0.00 0.00 0.00 88 1019.5
20260831071017 24 0 0.0 0.0 0.00 0.00 0.00 88 1019.5
20260831070517 24 0 0.0 0.0 0.00 0.00 0.00 87 1019.6
20260831070017 24 0 0.0 0.0 0.00 0.00 0.00 87 1019.6
20260831065517 24 0 0.0 0.0 0.00 0.00 0.00 87 1019.6
20260831065017 24 0 0.0 0.0 0.00 0.00 0.00 87 1019.7
20260831064517 25 0 0.0 0.0 0.00 0.00 0.00 87 1019.6
20260831064017 25 0 0.0 0.0 0.00 0.00 0.00 87 1019.5
20260831063517 25 0 0.0 0.0 0.00 0.00 0.00 87 1019.6
20260831063017 25 0 0.0 0.0 0.00 0.00 0.00 86 1019.6
20260831062518 25 0 0.0 0.0 0.00 0.00 0.00 86 1019.6
20260831062017 25 0 0.0 0.0 0.00 0.00 0.00 86 1019.7
20260831061517 25 0 0.0 0.0 0.00 0.00 0.00 86 1019.6
20260831061017 25 0 0.0 0.0 0.00 0.00 0.00 86 1019.6
20260831060517 25 0 0.0 0.0 0.00 0.00 0.00 86 1019.6
20260831060017 25 0 0.0 0.0 0.00 0.00 0.00 86 1019.6
20260831055518 25 0 0.0 0.0 0.00 0.00 0.00 85 1019.7
20260831055017 25 0 0.0 0.0 0.00 0.00 0.00 85 1019.7
20260831054517 25 0 0.0 0.0 0.00 0.00 0.00 85 1019.7
20260831054017 25 0 0.0 0.0 0.00 0.00 0.00 85 1019.8
20260831053517 25 0 0.0 0.0 0.00 0.00 0.00 84 1019.7
20260831053017 25 0 0.0 0.0 0.00 0.00 0.00 84 1019.7
20260831052517 25 0 0.0 0.0 0.00 0.00 0.00 84 1019.7
20260831052017 25 0 0.0 0.0 0.00 0.00 0.00 84 1019.7
20260831051517 25 0 0.0 0.0 0.00 0.00 0.00 84 1019.8
20260831051017 25 0 0.0 0.0 0.00 0.00 0.00 84 1019.8
20260831050517 25 0 0.0 0.0 0.00 0.00 0.00 84 1019.9
20260831050017 25 0 0.0 0.0 0.00 0.00 0.00 84 1019.9
20260831045517 25 0 0.0 0.0 0.00 0.00 0.00 83 1019.9
20260831045018 25 0 0.0 0.0 0.00 0.00 0.00 83 1019.9
20260831044517 25 0 0.0 0.0 0.00 0.00 0.00 83 1019.9
20260831044017 25 0 0.0 0.0 0.00 0.00 0.00 83 1019.9
20260831043517 25 0 0.0 0.0 0.00 0.00 0.00 83 1019.8
20260831043017 25 0 0.0 0.0 0.00 0.00 0.00 83 1019.8
20260831042517 25 0 0.0 0.0 0.00 0.00 0.00 82 1019.8
20260831042018 26 0 0.0 0.0 0.00 0.00 0.00 82 1019.8
20260831041517 26 0 0.0 0.0 0.00 0.00 0.00 82 1019.8
20260831041017 26 0 0.0 0.0 0.00 0.00 0.00 82 1019.9
20260831040517 26 0 0.0 0.0 0.00 0.00 0.00 82 1019.8
20260831040017 26 0 0.0 0.0 0.00 0.00 0.00 82 1019.7
20260831035517 26 0 0.0 0.0 0.00 0.00 0.00 82 1019.7
20260831035017 26 0 0.0 0.0 0.00 0.00 0.00 82 1019.7
20260831034517 26 0 0.0 0.0 0.00 0.00 0.00 82 1019.7
20260831034017 26 0 0.0 0.0 0.00 0.00 0.00 81 1019.7
20260831033517 26 0 0.0 0.0 0.00 0.00 0.00 81 1019.8
20260831033017 26 0 0.0 0.0 0.00 0.00 0.00 81 1019.7
20260831032517 26 0 0.0 0.0 0.00 0.00 0.00 81 1019.8
20260831032017 26 0 0.0 0.0 0.00 0.00 0.00 81 1019.8
20260831031517 26 0 0.0 0.0 0.00 0.00 0.00 80 1019.7
20260831031017 26 0 0.0 0.0 0.00 0.00 0.00 80 1019.7
20260831030517 26 0 0.0 0.0 0.00 0.00 0.00 80 1019.6
20260831030017 26 0 0.0 0.0 0.00 0.00 0.00 80 1019.6
20260831025518 26 0 0.0 0.0 0.00 0.00 0.00 79 1019.5
20260831025018 26 0 0.0 0.0 0.00 0.00 0.00 79 1019.5
20260831024518 26 0 0.0 0.0 0.00 0.00 0.00 79 1019.4
20260831024018 26 0 0.0 0.0 0.00 0.00 0.00 78 1019.5
20260831023518 26 0 0.0 0.0 0.00 0.00 0.00 78 1019.6
20260831023018 26 0 0.0 0.0 0.00 0.00 0.00 78 1019.5
20260831022517 27 0 0.0 0.0 0.00 0.00 0.00 77 1019.5
20260831022018 27 0 0.0 0.0 0.00 0.00 0.00 77 1013.7
20260831021518 27 0 0.0 0.0 0.00 0.00 0.00 1009.6
20260831021018 27 0 0.0 0.0 0.00 0.00 0.00 76 1018.8
20260831020518 27 0 0.0 0.0 0.00 0.00 0.00 76 1018.6
20260831020018 27 0 0.0 0.0 0.00 0.00 0.00 75 1018.5
20260831015518 27 0 0.0 0.0 0.00 0.00 0.00 75 1018.4
20260831015018 27 0 0.0 0.0 0.00 0.00 0.00 75 1018.6
20260831014518 27 0 0.0 0.0 0.00 0.00 0.00 74 1019.2
20260831014018 27 0 0.0 0.0 0.00 0.00 0.00 74 1019.1
20260831013518 27 0 0.0 0.0 0.00 0.00 0.00 74 1019.2
20260831013018 27 0 0.0 0.0 0.00 0.00 0.00 73 1019.1
20260831012518 27 0 0.0 0.0 0.00 0.00 0.00 73 1019.1
20260831012018 27 0 0.0 0.0 0.00 0.00 0.00 73 1019.0
20260831011518 27 0 0.0 0.0 0.00 0.00 0.00 72 1019.0
20260831011018 28 0 0.0 0.0 0.00 0.00 0.00 72 1019.0
20260831010518 28 0 0.0 0.0 0.00 0.00 0.00 71 1018.9
20260831010018 28 0 0.0 0.0 0.00 0.00 0.00 70 1018.8
20260831005517 28 0 0.0 0.0 0.00 0.00 0.00 69 1018.8
20260831005018 28 0 0.0 0.0 0.00 0.00 0.00 69 1018.8
20260831004518 28 0 0.0 0.0 0.00 0.00 0.00 69 1018.8
20260831004018 28 0 0.0 0.0 0.00 0.00 0.00 68 1018.8
20260831003517 28 0 0.0 0.0 0.00 0.00 0.00 67 1018.7
20260831003018 28 0 0.0 0.0 0.00 0.00 0.00 66 1018.7
20260831002517 29 0 0.0 0.0 0.00 0.00 0.00 66 1018.7
20260831002017 29 0 0.0 0.0 0.00 0.00 0.00 65 1018.7
20260831001517 30 0 0.0 0.0 0.00 0.00 0.00 64 1018.7
20260831001017 30 0 0.0 0.0 0.00 0.00 0.00 63 1018.7
20260831000516 30 0 0.0 0.0 0.00 0.00 0.00 62 1018.7
20260831000017 30 102 0.0 4.8 0.00 0.00 0.00 60 1018.7
20260830235517 31 76 4.8 1.6 0.00 0.00 0.00 59 1018.7
20260830235017 31 92 0.0 9.7 0.00 0.00 0.00 57 1018.7
20260830234517 31 56 0.0 4.8 0.00 0.00 0.00 57 1018.7